Weather History for New Bedford, MA

Change the Weather History Date:

Sunday, February 10, 2013

  Actual Average Record
Temperature  
Mean Temperature 23 °F -  
Max Temperature 34 °F 37 °F 54 °F (1990)
Min Temperature 10 °F 21 °F 2 °F (1992)
Degree Days  
Heating Degree Days 42    
Moisture  
Dew Point 11 °F    
Average Humidity 74    
Maximum Humidity 93    
Minimum Humidity 42    
Precipitation  
Precipitation 0.00 in - - ()
Sea Level Pressure  
Sea Level Pressure 30.35 in    
Wind  
Wind Speed 5 mph (WNW)    
Max Wind Speed 10 mph    
Max Gust Speed 16 mph    
Visibility 6 miles    
Events Fog    
Averages and records for this station are not official NWS values.
T = Trace of Precipitation, MM = Missing Value Source: NWS Daily Summary

Daily Weather History Graph

Daily Weather History Graph

Search for Another Location

Airport:

Trip Planner

Search our weather history database for the weather conditions in past years. The results will help you decide how hot, cold, wet, or windy it might be!

Date:

Astronomy

Feb. 10, 2013 Rise Set
Actual Time 6:45 AM EST 5:11 PM EST
Civil Twilight 6:16 AM EST 5:40 PM EST
Nautical Twilight 5:43 AM EST 6:12 PM EST
Astronomical Twilight 5:11 AM EST 6:45 PM EST
Moon 6:32 AM EST (2/10) 5:59 PM EST (2/10)
Length of Visible Light 11h 23m
Length of Day
10h 25m
New Moon, 0% of the Moon is Illuminated
Feb 10
New Moon
Feb 17
First Quarter
Feb 25
Full
Mar 4
Last Quarter
Mar 11
New

Hourly Weather History & Observations

Time (EST) Temp. Windchill Dew Point Humidity Pressure Visibility Wind Dir Wind Speed Gust Speed Precip Events Conditions
12:53 AM 15.1 °F 2.5 °F 6.1 °F 68% 30.18 in 10.0 mi NW 10.4 mph 16.1 mph N/A   Clear
1:53 AM 15.1 °F 3.3 °F 6.1 °F 68% 30.20 in 10.0 mi NW 9.2 mph - N/A   Clear
2:53 AM 14.0 °F 6.5 °F 5.0 °F 67% 30.21 in 10.0 mi Variable 4.6 mph - N/A   Clear
3:53 AM 12.9 °F 5.2 °F 3.9 °F 67% 30.24 in 10.0 mi WNW 4.6 mph - N/A   Clear
4:53 AM 12.0 °F 0.5 °F 3.9 °F 70% 30.26 in 10.0 mi WNW 8.1 mph - N/A   Clear
5:53 AM 12.9 °F 2.6 °F 3.0 °F 65% 30.30 in 10.0 mi NW 6.9 mph - N/A   Clear
6:53 AM 12.0 °F 4.1 °F 1.9 °F 64% 30.32 in 10.0 mi NW 4.6 mph - N/A   Clear
7:53 AM 15.1 °F 5.2 °F 3.9 °F 61% 30.36 in 10.0 mi NW 6.9 mph - N/A   Clear
8:53 AM 19.0 °F 12.3 °F 6.1 °F 57% 30.38 in 10.0 mi Variable 4.6 mph - N/A   Clear
9:53 AM 23.0 °F 15.8 °F 9.0 °F 55% 30.39 in 10.0 mi NW 5.8 mph - N/A   Clear
10:53 AM 26.1 °F 21.9 °F 12.0 °F 55% 30.38 in 10.0 mi Variable 3.5 mph - N/A   Clear
11:53 AM 30.0 °F 24.1 °F 12.9 °F 49% 30.38 in 10.0 mi WNW 5.8 mph - N/A   Clear
12:53 PM 32.0 °F 25.6 °F 12.0 °F 44% 30.37 in 10.0 mi WNW 6.9 mph - N/A   Clear
1:53 PM 33.1 °F 27.7 °F 15.1 °F 48% 30.35 in 10.0 mi West 5.8 mph - N/A   Clear
2:53 PM 34.0 °F 28.0 °F 12.9 °F 42% 30.36 in 10.0 mi WSW 6.9 mph - N/A   Clear
3:53 PM 33.1 °F - 12.0 °F 42% 30.37 in 10.0 mi Calm Calm - N/A   Clear
4:53 PM 30.0 °F 24.1 °F 17.1 °F 59% 30.36 in 10.0 mi SW 5.8 mph - N/A   Clear
5:53 PM 25.0 °F 20.7 °F 21.0 °F 85% 30.37 in 7.0 mi SSW 3.5 mph - N/A   Clear
6:53 PM 21.9 °F - 19.0 °F 89% 30.37 in 10.0 mi Calm Calm - N/A   Clear
7:43 PM 19.4 °F - 15.8 °F 86% 30.37 in 2.0 mi Calm Calm - N/A   Clear
7:49 PM 19.4 °F - 15.8 °F 86% 30.37 in 0.8 mi Calm Calm - N/A   Clear
7:50 PM 19.0 °F - 15.1 °F 85% 30.38 in 0.8 mi Calm Calm - N/A   Clear
8:00 PM 19.4 °F - 15.8 °F 86% 30.37 in 2.5 mi Calm Calm - N/A   Clear
8:07 PM 19.4 °F - 15.8 °F 86% 30.38 in 4.0 mi Calm Calm - N/A   Clear
8:14 PM 19.4 °F - 17.6 °F 93% 30.38 in 1.8 mi Calm Calm - N/A   Clear
8:31 PM 17.6 °F - 15.8 °F 93% 30.37 in 0.5 mi Calm Calm - N/A Fog Light Freezing Fog
8:39 PM 15.8 °F - 12.2 °F 86% 30.37 in 0.2 mi Calm Calm - N/A Fog Light Freezing Fog
8:53 PM 15.1 °F - 12.9 °F 91% 30.38 in 5.0 mi Calm Calm - N/A   Clear
9:53 PM 14.0 °F - 10.0 °F 84% 30.37 in 5.0 mi Calm Calm - N/A   Clear
10:00 PM 15.8 °F - 12.2 °F 86% 30.37 in 1.0 mi Calm Calm - N/A   Clear
10:08 PM 15.8 °F - 12.2 °F 86% 30.37 in 0.5 mi Calm Calm - N/A Fog Light Freezing Fog
10:15 PM 15.8 °F - 12.2 °F 86% 30.37 in 0.2 mi Calm Calm - N/A Fog Light Freezing Fog
10:22 PM 15.8 °F - 14.0 °F 93% 30.37 in 0.8 mi Calm Calm - N/A   Clear
10:27 PM 17.6 °F - 14.0 °F 86% 30.37 in 2.0 mi Calm Calm - N/A   Clear
10:34 PM 15.8 °F - 12.2 °F 86% 30.36 in 7.0 mi Calm Calm - N/A   Clear
10:53 PM 15.1 °F - 12.0 °F 88% 30.37 in 10.0 mi Calm Calm - N/A   Clear
11:39 PM 12.2 °F - 8.6 °F 85% 30.36 in 1.8 mi Calm Calm - N/A   Haze
11:53 PM 10.9 °F - 8.1 °F 88% 30.36 in 1.0 mi Calm Calm - N/A   Clear